FW5225 Weather Reports


time (UTC)temp
C
wind
direction
speed
KPH
gust
KPH
rain 1hr
cm
rain 24hr
cm
rain mn
cm
humidity
%
barometer
mb
20260510223507 41 266 1.6 8.0 0.00 0.00 0.00 7 1005.6
20260510223007 40 134 0.0 16.1 0.00 0.00 0.00 7 1005.7
20260510222507 40 251 3.2 16.1 0.00 0.00 0.00 7 1005.8
20260510222007 40 284 6.4 17.7 0.00 0.00 0.00 7 1005.9
20260510221506 40 262 6.4 17.7 0.00 0.00 0.00 7 1005.9
20260510221007 41 188 3.2 17.7 0.00 0.00 0.00 7 1005.9
20260510220506 40 285 3.2 17.7 0.00 0.00 0.00 7 1006.1
20260510220006 41 261 3.2 12.9 0.00 0.00 0.00 6 1006.2
20260510215504 41 202 1.6 12.9 0.00 0.00 0.00 6 1006.2
20260510215006 41 261 3.2 11.3 0.00 0.00 0.00 7 1006.3
20260510214504 40 306 4.8 14.5 0.00 0.00 0.00 6 1006.4
20260510214004 41 279 3.2 14.5 0.00 0.00 0.00 7 1006.6
20260510213502 40 204 3.2 14.5 0.00 0.00 0.00 7 1006.6
20260510213009 40 246 4.8 12.9 0.00 0.00 0.00 6 1006.7
20260510212503 40 202 3.2 12.9 0.00 0.00 0.00 6 1006.7
20260510212005 40 244 3.2 12.9 0.00 0.00 0.00 6 1006.8
20260510211505 40 241 3.2 11.3 0.00 0.00 0.00 6 1006.9
20260510211001 40 225 4.8 9.7 0.00 0.00 0.00 6 1006.9
20260510210501 40 168 3.2 11.3 0.00 0.00 0.00 6 1007.0
20260510210100 40 185 4.8 11.3 0.00 0.00 0.00 6 1007.0
20260510205600 40 188 3.2 8.0 0.00 0.00 0.00 7 1007.0
20260510205100 39 330 1.6 8.0 0.00 0.00 0.00 8 1007.1
20260510204603 40 261 3.2 12.9 0.00 0.00 0.00 6 1007.1
20260510204058 40 205 3.2 9.7 0.00 0.00 0.00 9 1007.2
20260510203558 40 274 3.2 9.7 0.00 0.00 0.00 7 1007.2
20260510203058 40 175 1.6 8.0 0.00 0.00 0.00 8 1007.2
20260510202558 40 206 1.6 8.0 0.00 0.00 0.00 7 1007.3
20260510202056 40 205 1.6 8.0 0.00 0.00 0.00 8 1007.4
20260510201556 39 216 1.6 9.7 0.00 0.00 0.00 8 1007.4
20260510201055 40 153 1.6 9.7 0.00 0.00 0.00 8 1007.4
20260510200554 39 191 0.0 6.4 0.00 0.00 0.00 8 1007.5
20260510200058 39 120 0.0 4.8 0.00 0.00 0.00 8 1007.5
20260510195555 38 209 1.6 3.2 0.00 0.00 0.00 8 1007.5
20260510195052 38 223 0.0 4.8 0.00 0.00 0.00 9 1007.6
20260510194558 38 138 1.6 6.4 0.00 0.00 0.00 8 1007.6
20260510194051 38 131 0.0 6.4 0.00 0.00 0.00 9 1007.6
20260510193552 37 85 0.0 6.4 0.00 0.00 0.00 11 1007.7
20260510193051 37 20 1.6 6.4 0.00 0.00 0.00 11 1007.7
20260510192552 38 76 1.6 4.8 0.00 0.00 0.00 9 1007.7
20260510192054 38 219 1.6 4.8 0.00 0.00 0.00 9 1007.7
20260510191551 37 163 0.0 3.2 0.00 0.00 0.00 11 1007.7
20260510191047 37 28 1.6 4.8 0.00 0.00 0.00 9 1007.8
20260510190546 37 360 0.0 4.8 0.00 0.00 0.00 10 1007.9
20260510190051 37 129 0.0 6.4 0.00 0.00 0.00 9 1008.0
20260510185546 37 178 3.2 6.4 0.00 0.00 0.00 9 1008.1
20260510185046 37 84 1.6 12.9 0.00 0.00 0.00 9 1008.2
20260510184545 37 81 3.2 12.9 0.00 0.00 0.00 9 1008.3
20260510184043 37 65 3.2 11.3 0.00 0.00 0.00 9 1008.3
20260510183542 36 103 4.8 11.3 0.00 0.00 0.00 10 1008.4
20260510183050 36 117 0.0 4.8 0.00 0.00 0.00 9 1008.4
20260510182542 36 153 1.6 8.0 0.00 0.00 0.00 10 1008.5
20260510182040 36 138 3.2 8.0 0.00 0.00 0.00 10 1008.5
20260510181610 36 138 1.6 6.4 0.00 0.00 0.00 10 1008.5
20260510181036 36 55 1.6 4.8 0.00 0.00 0.00 10 1008.6
20260510180534 36 327 0.0 9.7 0.00 0.00 0.00 10 1008.6
20260510180041 35 172 1.6 6.4 0.00 0.00 0.00 10 1008.6
20260510175535 35 178 1.6 4.8 0.00 0.00 0.00 10 1008.6
20260510175032 35 146 0.0 4.8 0.00 0.00 0.00 11 1008.6
20260510174548 34 355 0.0 8.0 0.00 0.00 0.00 10 1008.5
20260510174028 34 75 3.2 8.0 0.00 0.00 0.00 10 1008.5
20260510173526 34 28 1.6 8.0 0.00 0.00 0.00 10 1008.5
20260510173027 34 59 1.6 8.0 0.00 0.00 0.00 10 1008.5
20260510172525 34 51 1.6 8.0 0.00 0.00 0.00 10 1008.4
20260510172024 34 100 0.0 8.0 0.00 0.00 0.00 11 1008.4
20260510171523 33 59 4.8 9.7 0.00 0.00 0.00 11 1008.4
20260510171020 33 95 3.2 8.0 0.00 0.00 0.00 11 1008.4
20260510170519 33 103 3.2 11.3 0.00 0.00 0.00 10 1008.4
20260510170018 33 61 4.8 12.9 0.00 0.00 0.00 11 1008.3
20260510165517 32 340 3.2 16.1 0.00 0.00 0.00 11 1008.2
20260510165015 32 34 8.0 16.1 0.00 0.00 0.00 11 1008.2
20260510164514 32 53 9.7 16.1 0.00 0.00 0.00 11 1008.1
20260510164013 32 36 8.0 17.7 0.00 0.00 0.00 11 1008.1
20260510163512 32 49 9.7 16.1 0.00 0.00 0.00 12 1008.1
20260510163013 32 29 8.0 17.7 0.00 0.00 0.00 12 1008.0
20260510162510 31 19 6.4 17.7 0.00 0.00 0.00 12 1008.0
20260510162008 31 57 11.3 17.7 0.00 0.00 0.00 12 1008.0
20260510161507 31 36 8.0 16.1 0.00 0.00 0.00 14 1008.0
20260510161006 31 55 6.4 12.9 0.00 0.00 0.00 13 1008.0
20260510160504 31 29 4.8 12.9 0.00 0.00 0.00 13 1008.0
20260510160008 30 350 3.2 9.7 0.00 0.00 0.00 13 1008.0
20260510155502 30 92 4.8 9.7 0.00 0.00 0.00 13 1008.1
20260510155100 30 40 3.2 8.0 0.00 0.00 0.00 16 1008.1
20260510154603 30 43 3.2 9.7 0.00 0.00 0.00 15 1008.1
20260510154100 30 36 1.6 9.7 0.00 0.00 0.00 15 1008.1
20260510153556 30 44 1.6 8.0 0.00 0.00 0.00 13 1008.2
20260510153105 30 112 0.0 8.0 0.00 0.00 0.00 14 1008.2
20260510152555 29 50 1.6 8.0 0.00 0.00 0.00 13 1008.2
20260510152052 29 92 3.2 8.0 0.00 0.00 0.00 14 1008.1
20260510151551 29 54 3.2 6.4 0.00 0.00 0.00 14 1008.1
20260510151050 29 62 4.8 8.0 0.00 0.00 0.00 13 1008.1
20260510150549 29 5 3.2 8.0 0.00 0.00 0.00 14 1008.1
20260510150049 29 55 3.2 8.0 0.00 0.00 0.00 14 1008.1
20260510145549 29 56 1.6 8.0 0.00 0.00 0.00 14 1008.0
20260510145045 29 65 1.6 4.8 0.00 0.00 0.00 14 1008.0
20260510144544 28 46 0.0 3.2 0.00 0.00 0.00 14 1007.9
20260510144042 28 311 0.0 0.0 0.00 0.00 0.00 16 1007.9
20260510143540 27 311 0.0 0.0 0.00 0.00 0.00 16 1007.9
20260510143039 27 336 0.0 0.0 0.00 0.00 0.00 20 1007.9
20260510142543 27 78 0.0 0.0 0.00 0.00 0.00 20 1007.8
20260510142037 26 78 0.0 0.0 0.00 0.00 0.00 31 1007.8
20260510141538 26 78 0.0 0.0 0.00 0.00 0.00 28 1007.7
20260510141035 25 78 0.0 0.0 0.00 0.00 0.00 29 1007.7
20260510140533 25 78 0.0 0.0 0.00 0.00 0.00 24 1007.6
20260510140031 25 78 0.0 0.0 0.00 0.00 0.00 17 1007.5
20260510135530 24 78 0.0 0.0 0.00 0.00 0.00 22 1007.4
20260510135028 23 78 0.0 0.0 0.00 0.00 0.00 24 1007.3
20260510134526 23 78 0.0 0.0 0.00 0.00 0.00 22 1007.2
20260510134026 23 355 0.0 0.0 0.00 0.00 0.00 24 1007.1
20260510133524 23 355 0.0 0.0 0.00 0.00 0.00 22 1007.0
20260510133023 23 355 0.0 0.0 0.00 0.00 0.00 25 1007.0
20260510132522 23 355 0.0 0.0 0.00 0.00 0.00 23 1006.9
20260510132021 23 355 0.0 0.0 0.00 0.00 0.00 23 1006.8
20260510131519 23 355 0.0 0.0 0.00 0.00 0.00 20 1006.8
20260510131022 23 355 0.0 0.0 0.00 0.00 0.00 20 1006.7
20260510130516 23 355 0.0 0.0 0.00 0.00 0.00 21 1006.6
20260510130016 23 355 0.0 0.0 0.00 0.00 0.00 20 1006.6
20260510125515 23 355 0.0 0.0 0.00 0.00 0.00 18 1006.6
20260510125013 23 355 0.0 0.0 0.00 0.00 0.00 18 1006.5
20260510124514 23 42 0.0 1.6 0.00 0.00 0.00 21 1006.5
20260510124011 23 42 0.0 1.6 0.00 0.00 0.00 18 1006.5
20260510123510 23 42 0.0 4.8 0.00 0.00 0.00 20 1006.4
20260510123010 23 42 0.0 4.8 0.00 0.00 0.00 18 1006.5
20260510122510 23 61 3.2 4.8 0.00 0.00 0.00 17 1006.5
20260510122010 23 92 0.0 3.2 0.00 0.00 0.00 18 1006.3
20260510121509 24 104 0.0 3.2 0.00 0.00 0.00 17 1006.2
20260510121010 24 50 0.0 3.2 0.00 0.00 0.00 17 1006.2
20260510120509 24 21 0.0 3.2 0.00 0.00 0.00 17 1006.2
20260510120008 25 45 1.6 3.2 0.00 0.00 0.00 16 1006.2
20260510115508 25 53 0.0 3.2 0.00 0.00 0.00 15 1006.2
20260510115007 25 36 0.0 3.2 0.00 0.00 0.00 18 1006.1
20260510114509 25 41 0.0 3.2 0.00 0.00 0.00 19 1006.1
20260510114006 25 302 0.0 3.2 0.00 0.00 0.00 18 1006.0
20260510113507 25 67 1.6 4.8 0.00 0.00 0.00 15 1006.1
20260510113006 24 56 1.6 4.8 0.00 0.00 0.00 16 1006.1
20260510112508 24 46 1.6 3.2 0.00 0.00 0.00 17 1006.1
20260510112006 23 323 0.0 3.2 0.00 0.00 0.00 18 1006.1
20260510111508 23 317 0.0 4.8 0.00 0.00 0.00 17 1006.0
20260510111004 24 316 1.6 4.8 0.00 0.00 0.00 21 1006.0
20260510110502 24 52 0.0 3.2 0.00 0.00 0.00 21 1005.9
20260510110006 24 38 0.0 3.2 0.00 0.00 0.00 18 1005.9
20260510105601 25 32 0.0 1.6 0.00 0.00 0.00 18 1005.8
20260510105059 25 312 0.0 3.2 0.00 0.00 0.00 21 1005.8
20260510104559 25 312 0.0 3.2 0.00 0.00 0.00 18 1005.6
20260510104100 25 32 0.0 3.2 0.00 0.00 0.00 16 1005.7
20260510103556 25 20 0.0 3.2 0.00 0.00 0.00 21 1005.7
20260510103056 25 237 0.0 3.2 0.00 0.00 0.00 15 1005.6
20260510102556 25 252 0.0 0.0 0.00 0.00 0.00 16 1005.7
20260510102054 26 225 0.0 1.6 0.00 0.00 0.00 19 1005.7
20260510101559 26 225 0.0 1.6 0.00 0.00 0.00 18 1005.7
20260510101051 26 293 0.0 1.6 0.00 0.00 0.00 17 1005.7
20260510100554 26 293 0.0 3.2 0.00 0.00 0.00 19 1005.7
20260510100112 27 293 1.6 3.2 0.00 0.00 0.00 17 1005.7
20260510095551 27 244 0.0 4.8 0.00 0.00 0.00 15 1005.7
20260510095046 27 116 0.0 4.8 0.00 0.00 0.00 14 1005.7
20260510094545 27 163 0.0 4.8 0.00 0.00 0.00 15 1005.7
20260510094044 27 196 0.0 12.9 0.00 0.00 0.00 16 1005.5
20260510093543 27 84 6.4 16.1 0.00 0.00 0.00 14 1005.3
20260510093048 28 67 11.3 16.1 0.00 0.00 0.00 14 1005.3
20260510092540 30 63 6.4 12.9 0.00 0.00 0.00 14 1005.2
20260510092038 31 61 8.0 16.1 0.00 0.00 0.00 12 1005.1
20260510091539 31 312 6.4 16.1 0.00 0.00 0.00 11 1005.0
20260510091037 32 283 6.4 12.9 0.00 0.00 0.00 11 1005.0
20260510090537 31 319 6.4 14.5 0.00 0.00 0.00 11 1004.8
20260510090038 32 261 8.0 14.5 0.00 0.00 0.00 11 1004.8
20260510085537 32 281 6.4 19.3 0.00 0.00 0.00 11 1004.8
20260510085036 32 254 9.7 19.3 0.00 0.00 0.00 11 1004.8
20260510084537 32 289 11.3 19.3 0.00 0.00 0.00 11 1004.7
20260510084036 32 275 8.0 24.1 0.00 0.00 0.00 10 1004.8
20260510083536 32 294 11.3 24.1 0.00 0.00 0.00 11 1004.8
20260510083044 32 293 11.3 20.9 0.00 0.00 0.00 11 1004.7
20260510082535 32 333 11.3 22.5 0.00 0.00 0.00 11 1004.7
20260510082035 32 274 6.4 20.9 0.00 0.00 0.00 12 1004.8
20260510081539 32 292 11.3 19.3 0.00 0.00 0.00 11 1004.8
20260510081036 32 317 12.9 19.3 0.00 0.00 0.00 12 1004.7
20260510080536 32 308 12.9 25.7 0.00 0.00 0.00 11 1004.7
20260510080036 32 295 12.9 25.7 0.00 0.00 0.00 11 1004.7
20260510075536 32 304 9.7 22.5 0.00 0.00 0.00 12 1004.8
20260510075033 31 302 11.3 20.9 0.00 0.00 0.00 12 1004.8
20260510074534 32 297 11.3 20.9 0.00 0.00 0.00 11 1004.9
20260510074032 32 277 12.9 20.9 0.00 0.00 0.00 11 1004.9
20260510073532 32 292 11.3 24.1 0.00 0.00 0.00 11 1004.9
20260510073031 32 285 8.0 24.1 0.00 0.00 0.00 12 1004.9
20260510072531 32 319 14.5 24.1 0.00 0.00 0.00 11 1005.0
20260510072032 32 305 11.3 22.5 0.00 0.00 0.00 11 1004.9
20260510071537 32 248 11.3 20.9 0.00 0.00 0.00 12 1004.8
20260510071028 32 307 11.3 22.5 0.00 0.00 0.00 11 1004.9
20260510070528 32 272 11.3 22.5 0.00 0.00 0.00 11 1004.9
20260510070027 32 287 11.3 20.9 0.00 0.00 0.00 11 1004.8
20260510065527 32 292 11.3 27.4 0.00 0.00 0.00 10 1004.8
20260510065026 33 346 16.1 30.6 0.00 0.00 0.00 10 1004.8
20260510064526 32 310 16.1 24.1 0.00 0.00 0.00 10 1004.7
20260510064026 32 275 14.5 24.1 0.00 0.00 0.00 11 1004.8
20260510063530 32 280 11.3 27.4 0.00 0.00 0.00 9 1004.8
20260510063027 32 322 9.7 27.4 0.00 0.00 0.00 10 1004.7
20260510062526 32 290 14.5 22.5 0.00 0.00 0.00 9 1004.7
20260510062025 32 259 11.3 24.1 0.00 0.00 0.00 9 1004.7
20260510061538 33 318 14.5 25.7 0.00 0.00 0.00 9 1004.7
20260510061027 33 284 14.5 25.7 0.00 0.00 0.00 8 1004.7
20260510060524 32 266 14.5 25.7 0.00 0.00 0.00 8 1004.5
20260510060025 32 288 12.9 24.1 0.00 0.00 0.00 9 1004.6
20260510055524 32 280 12.9 22.5 0.00 0.00 0.00 10 1004.6
20260510055024 32 296 11.3 22.5 0.00 0.00 0.00 9 1004.6
20260510054524 33 289 9.7 22.5 0.00 0.00 0.00 10 1004.6
20260510054024 32 309 12.9 24.1 0.00 0.00 0.00 9 1004.6
20260510053524 32 331 12.9 24.1 0.00 0.00 0.00 10 1004.6
20260510053024 32 285 11.3 24.1 0.00 0.00 0.00 11 1004.5
20260510052528 33 273 11.3 22.5 0.00 0.00 0.00 10 1004.5
20260510052023 33 310 9.7 17.7 0.00 0.00 0.00 10 1004.6
20260510051523 33 299 9.7 20.9 0.00 0.00 0.00 10 1004.6
20260510051023 33 293 11.3 24.1 0.00 0.00 0.00 10 1004.6
20260510050527 33 285 12.9 24.1 0.00 0.00 0.00 9 1004.6
20260510050022 33 291 9.7 20.9 0.00 0.00 0.00 9 1004.7
20260510045522 33 262 8.0 19.3 0.00 0.00 0.00 10 1004.5
20260510045022 33 259 9.7 19.3 0.00 0.00 0.00 10 1004.5
20260510044523 33 294 8.0 19.3 0.00 0.00 0.00 9 1004.5
20260510044025 33 278 9.7 22.5 0.00 0.00 0.00 9 1004.4
20260510043522 33 275 8.0 16.1 0.00 0.00 0.00 10 1004.4
20260510043023 33 247 8.0 14.5 0.00 0.00 0.00 10 1004.3
20260510042521 33 292 3.2 12.9 0.00 0.00 0.00 9 1004.2
20260510042025 33 292 6.4 16.1 0.00 0.00 0.00 9 1004.2
20260510041522 33 309 9.7 17.7 0.00 0.00 0.00 9 1004.2
20260510041021 33 298 6.4 17.7 0.00 0.00 0.00 9 1004.1
20260510040521 33 295 4.8 17.7 0.00 0.00 0.00 10 1004.2
20260510040020 33 254 8.0 17.7 0.00 0.00 0.00 10 1004.1
20260510035520 33 234 6.4 17.7 0.00 0.00 0.00 10 1004.0
20260510035022 33 259 8.0 17.7 0.00 0.00 0.00 9 1004.0
20260510034520 34 259 6.4 16.1 0.00 0.00 0.00 9 1003.9
20260510034021 34 253 4.8 16.1 0.00 0.00 0.00 9 1003.8
20260510033521 34 256 6.4 16.1 0.00 0.00 0.00 9 1003.7
20260510033019 34 228 6.4 16.1 0.00 0.00 0.00 9 1003.7
20260510032519 34 219 4.8 16.1 0.00 0.00 0.00 9 1003.7
20260510032020 34 240 8.0 16.1 0.00 0.00 0.00 9 1003.6
20260510031535 34 262 8.0 16.1 0.00 0.00 0.00 9 1003.5
20260510031019 35 256 4.8 14.5 0.00 0.00 0.00 9 1003.4
20260510030518 35 258 4.8 16.1 0.00 0.00 0.00 9 1003.4
20260510030022 35 271 4.8 16.1 0.00 0.00 0.00 9 1003.4
20260510025518 35 290 8.0 16.1 0.00 0.00 0.00 9 1003.3
20260510025018 35 279 6.4 14.5 0.00 0.00 0.00 9 1003.2
20260510024532 35 292 6.4 11.3 0.00 0.00 0.00 9 1003.1
20260510024017 35 283 3.2 14.5 0.00 0.00 0.00 9 1003.0
20260510023517 35 292 6.4 14.5 0.00 0.00 0.00 9 1003.0
20260510023017 35 291 4.8 11.3 0.00 0.00 0.00 9 1002.9
20260510022522 35 293 3.2 12.9 0.00 0.00 0.00 9 1002.9
20260510022017 35 279 4.8 12.9 0.00 0.00 0.00 9 1002.9
20260510021521 35 295 1.6 11.3 0.00 0.00 0.00 9 1002.8
20260510021016 36 272 3.2 12.9 0.00 0.00 0.00 8 1002.8
20260510020516 36 305 3.2 11.3 0.00 0.00 0.00 8 1002.8
20260510020016 36 244 1.6 8.0 0.00 0.00 0.00 9 1002.7
20260510015515 36 120 1.6 11.3 0.00 0.00 0.00 8 1002.8
20260510015015 36 224 4.8 14.5 0.00 0.00 0.00 8 1002.7
20260510014517 37 216 4.8 12.9 0.00 0.00 0.00 8 1002.7
20260510014015 37 321 4.8 12.9 0.00 0.00 0.00 8 1002.7
20260510013517 37 208 1.6 12.9 0.00 0.00 0.00 8 1002.6
20260510013015 37 280 3.2 12.9 0.00 0.00 0.00 8 1002.6
20260510012515 37 259 4.8 12.9 0.00 0.00 0.00 8 1002.6
20260510012015 38 254 1.6 11.3 0.00 0.00 0.00 8 1002.7
20260510011515 38 207 1.6 11.3 0.00 0.00 0.00 8 1002.5
20260510011014 38 209 4.8 11.3 0.00 0.00 0.00 8 1002.6
20260510010514 38 292 1.6 14.5 0.00 0.00 0.00 9 1002.6
20260510010013 38 267 1.6 14.5 0.00 0.00 0.00 8 1002.6
20260510005513 38 203 1.6 12.9 0.00 0.00 0.00 8 1002.6
20260510005013 38 194 3.2 12.9 0.00 0.00 0.00 8 1002.7
20260510004512 38 182 4.8 17.7 0.00 0.00 0.00 8 1002.7
20260510004012 38 227 1.6 17.7 0.00 0.00 0.00 8 1002.6
20260510003512 39 216 3.2 11.3 0.00 0.00 0.00 8 1002.6
20260510003026 39 182 1.6 11.3 0.00 0.00 0.00 7 1002.7
20260510002516 39 300 1.6 11.3 0.00 0.00 0.00 8 1002.7
20260510002011 39 190 1.6 12.9 0.00 0.00 0.00 8 1002.8
20260510001515 39 223 4.8 17.7 0.00 0.00 0.00 8 1002.8
20260510001011 39 267 6.4 17.7 0.00 0.00 0.00 8 1002.7
20260510000510 39 240 1.6 12.9 0.00 0.00 0.00 8 1002.8
20260510000009 39 214 3.2 11.3 0.00 0.00 0.00 8 1002.9
20260509235508 40 300 1.6 17.7 0.00 0.00 0.00 8 1003.0
20260509235008 40 153 4.8 17.7 0.00 0.00 0.00 8 1002.9
20260509234521 40 227 3.2 11.3 0.00 0.00 0.00 8 1003.0
20260509234009 39 157 3.2 8.0 0.00 0.00 0.00 8 1003.0
20260509233507 39 261 1.6 12.9 0.00 0.00 0.00 8 1003.0
20260509233009 39 207 3.2 16.1 0.00 0.00 0.00 8 1003.1
20260509232507 39 259 9.7 16.1 0.00 0.00 0.00 7 1003.1
20260509232006 40 295 3.2 9.7 0.00 0.00 0.00 8 1003.2
20260509231506 40 221 3.2 11.3 0.00 0.00 0.00 8 1003.1
20260509231007 40 237 3.2 11.3 0.00 0.00 0.00 8 1003.2
20260509230505 40 278 4.8 11.3 0.00 0.00 0.00 8 1003.2
20260509230011 40 249 3.2 14.5 0.00 0.00 0.00 8 1003.3
20260509225505 40 166 3.2 12.9 0.00 0.00 0.00 8 1003.3
20260509225005 40 215 4.8 12.9 0.00 0.00 0.00 8 1003.3
20260509224503 39 326 4.8 11.3 0.00 0.00 0.00 8 1003.4
20260509224002 40 225 3.2 14.5 0.00 0.00 0.00 8 1003.6